Regional Weather Roundup
Issued by NWS Sioux Falls, SD

Home | Current Version | Previous Version | Graphics & Text | Print | Product List | Glossary Off
Versions: 1 2 3 4 5 6 7 8 9 10 11 12 13 14 15 16 17 18 19 20 21 22 23 24 25 26 27 28 29 30 31 32 33 34 35 36 37 38 39 40 41 42 43 44 45 46 47 48 49 50

000
ASUS43 KFSD 280210
RWRFSD

WEATHER ROUNDUP FOR SE SOUTH DAKOTA/SW MINNESOTA/NW IOWA
NATIONAL WEATHER SERVICE SIOUX FALLS SD
900 PM CDT WED AUG 27 2014

NOTE: "FAIR" INDICATES FEW OR NO CLOUDS BELOW 12,000 FEET WITH NO
SIGNIFICANT WEATHER AND OR OBSTRUCTIONS TO VISIBILITY.


SDZ038>040-050-052>070-280300-
SOUTHEAST SOUTH DAKOTA

CITY           SKY/WX    TMP DP  RH WIND       PRES   REMARKS
CHAMBERLAIN    CLOUDY    68  65  91 SE8       30.04S
HURON          MOCLDY    70  64  81 SE7       30.04S
MADISON        CLOUDY    68  68 100 SE7       30.09S
MITCHELL       MOCLDY    69  66  90 E6        30.05R
SIOUX FALLS    CLOUDY    70  66  87 E8        30.08R
WINNER         CLOUDY    70  66  87 E8        30.03S
YANKTON        CLOUDY    70  66  88 E7        30.05S
$$

MNZ071-072-080-081-089-090-097-098-280300-
SOUTHWEST MINNESOTA

CITY           SKY/WX    TMP DP  RH WIND       PRES   REMARKS
FAIRMONT       CLEAR     63  55  77 E3        30.12R
JACKSON        PTCLDY    64  61  88 E6        30.12S
LUVERNE        CLOUDY    70  64  83 CALM      30.10R
MARSHALL       CLOUDY    70  57  64 SE12      30.09S
MONTEVIDEO     PTCLDY    64  61  88 S3        30.11R
PIPESTONE      PTCLDY    68  63  83 SE3       30.10S
REDWOOD FALLS  CLEAR     66  59  78 S7        30.11R
TRACY          PTCLDY    67  63  86 SE6       30.11S
WINDOM         CLOUDY    64  61  88 E3        30.13R
WORTHINGTON    PTCLDY    64  63  94 E6        30.12S
$$

IAZ001>003-012>014-020>022-031-032-NEZ013-014-SDZ071-280300-
NORTHWEST IOWA

CITY           SKY/WX    TMP DP  RH WIND       PRES   REMARKS
DENISON        CLOUDY    70  68  94 E7        30.07S
ESTHERVILLE    PTCLDY    63  61  93 E7        30.11R
LE MARS        CLOUDY    70  68  94 VRB5      30.08R
ORANGE CITY    CLOUDY    72  66  83 E6        30.09S
SHELDON        CLOUDY    68  66  94 SE5       30.09R
SIOUX CITY     CLOUDY    71  68  90 SE6       30.07R
SPENCER        CLOUDY    70  64  81 E7        30.10S
STORM LAKE     CLOUDY    68  68 100 SE5       30.10S
$$

ABBREVIATIONS USED IN REMARKS
   TC - TEMPERATURE IN CELSIUS
  WCI - WIND CHILL INDEX
   HX - HEAT INDEX
  VSB - VISIBILITY



USA.gov is the U.S. government's official web portal to all federal, state and local government web resources and services.